Location: Unspecified
(42.6540°N, 0.0000°E)
Time: 03:23:48
(UTC+00:00)

Altair 2 - Visible Passes

Search period start: 04 April 2026 00:00
Search period end: 14 April 2026 00:00
Orbit: 829 x 954 km, 79.9° (Epoch: 29 March)

Date Brightness Start Highest point End Pass type
(mag) Time Alt. Az. Time Alt. Az. Time Alt. Az.
4 Apr 6.4 21:38:15 47° NNE 21:38:15 47° NNE 21:42:20 10° NNE visible
4 Apr 8.2 23:21:04 14° WNW 23:21:21 14° WNW 23:24:23 10° NNW visible
5 Apr 7.6 19:54:54 12° ENE 19:54:54 12° ENE 19:56:04 10° ENE visible
5 Apr 6.1 21:37:42 61° N 21:37:42 61° N 21:42:30 10° N visible
5 Apr 8.3 23:20:32 12° WNW 23:21:41 12° WNW 23:23:57 10° NW visible
6 Apr 7.4 19:54:16 15° ENE 19:54:16 15° ENE 19:56:54 10° NE visible
6 Apr 5.9 21:37:04 70° WNW 21:37:04 70° WNW 21:42:41 10° N visible
6 Apr 8.5 23:21:08 10° WNW 23:22:02 10° NW 23:22:57 10° NW visible
7 Apr 7.1 19:53:31 19° E 19:53:41 19° E 19:57:32 10° NE visible
7 Apr 6.1 21:36:19 55° WSW 21:37:02 60° WNW 21:42:49 10° N visible
8 Apr 6.9 19:52:37 21° ESE 19:53:44 22° E 19:58:04 10° NE visible
8 Apr 6.4 21:35:25 37° WSW 21:37:14 51° WNW 21:42:57 10° N visible
9 Apr 6.7 19:51:30 20° ESE 19:53:48 26° E 19:58:31 10° NE visible
9 Apr 6.8 21:34:16 23° SW 21:37:27 44° WNW 21:43:03 10° N visible
10 Apr 6.5 19:50:05 15° SE 19:53:53 31° E 19:58:54 10° NNE visible
10 Apr 7.1 21:32:49 12° SW 21:37:41 37° WNW 21:43:08 10° N visible
11 Apr 6.3 19:48:50 10° SSE 19:53:57 36° E 19:59:15 10° NNE visible
11 Apr 7.4 21:32:52 10° SW 21:37:56 32° WNW 21:43:12 10° N visible
12 Apr 6.1 19:48:44 10° SSE 19:54:03 42° E 19:59:35 10° NNE visible
12 Apr 7.6 21:33:21 10° SW 21:38:12 28° WNW 21:43:14 10° N visible
13 Apr 6.0 19:48:41 10° S 19:54:10 50° E 19:59:52 10° NNE visible
13 Apr 7.9 21:33:52 10° WSW 21:38:28 24° WNW 21:43:13 10° NNW visible
